GW0392 Weather Reports


Display with metric or nautical units.
time (UTC)temp
F
wind
direction
speed
MPH
gust
MPH
rain 1hr
in
rain 24hr
in
rain mn
in
humidity
%
barometer
mb
20260904163631 93 214 1.0 3.0 0.00 0.00 0.00 61 1017.1
20260904163126 93 203 1.0 1.0 0.00 0.00 0.00 63 1017.4
20260904162625 92 213 0.0 2.0 0.00 0.00 0.00 64 1017.4
20260904162120 92 247 2.0 2.0 0.00 0.00 0.00 63 1017.5
20260904161616 93 212 1.0 2.0 0.00 0.00 0.00 63 1017.4
20260904161111 93 221 0.0 2.0 0.00 0.00 0.00 63 1017.5
20260904160606 92 204 1.0 2.0 0.00 0.00 0.00 65 1017.5
20260904155556 91 225 0.0 2.0 0.00 0.00 0.00 65 1017.8
20260904155050 90 202 1.0 2.0 0.00 0.00 0.00 68 1017.8
20260904154544 90 196 2.0 2.0 0.00 0.00 0.00 68 1017.8
20260904154039 90 214 0.0 2.0 0.00 0.00 0.00 68 1017.9
20260904153538 90 208 0.0 2.0 0.00 0.00 0.00 68 1017.9
20260904153035 90 220 0.0 2.0 0.00 0.00 0.00 69 1017.8
20260904152530 89 214 0.0 1.0 0.00 0.00 0.00 68 1017.8
20260904152026 89 226 0.0 0.0 0.00 0.00 0.00 69 1017.8
20260904151520 89 217 0.0 1.0 0.00 0.00 0.00 70 1017.9
20260904151015 88 219 0.0 1.0 0.00 0.00 0.00 71 1017.9
20260904150515 88 211 0.0 1.0 0.00 0.00 0.00 71 1018.0
20260904150009 88 213 0.0 0.0 0.00 0.00 0.00 72 1017.5
20260904145504 87 215 1.0 1.0 0.00 0.00 0.00 73 1017.9
20260904144959 87 263 1.0 1.0 0.00 0.00 0.00 74 1017.9
20260904144455 86 218 0.0 0.0 0.00 0.00 0.00 76 1017.8
20260904143950 86 223 0.0 0.0 0.00 0.00 0.00 77 1017.7
20260904143446 85 226 0.0 1.0 0.00 0.00 0.00 77 1017.5
20260904142943 85 231 0.0 1.0 0.00 0.00 0.00 79 1017.5
20260904142439 85 228 0.0 0.0 0.00 0.00 0.00 80 1017.8
20260904141933 84 221 0.0 1.0 0.00 0.00 0.00 80 1017.5
20260904141428 84 220 0.0 1.0 0.00 0.00 0.00 80 1017.5
20260904140925 84 219 0.0 1.0 0.00 0.00 0.00 80 1017.7
20260904140425 85 212 0.0 0.0 0.00 0.00 0.00 80 1017.5
20260904135923 84 225 0.0 1.0 0.00 0.00 0.00 81 1017.7
20260904135423 82 224 0.0 1.0 0.00 0.00 0.00 82 1017.7
20260904134920 82 225 0.0 0.0 0.00 0.00 0.00 84 1017.3
20260904134419 81 222 0.0 0.0 0.00 0.00 0.00 86 1017.7
20260904133914 80 223 0.0 0.0 0.00 0.00 0.00 87 1017.4
20260904133415 80 229 0.0 0.0 0.00 0.00 0.00 87 1017.5
20260904132910 79 225 0.0 0.0 0.00 0.00 0.00 89 1017.5
20260904132405 78 228 0.0 0.0 0.00 0.00 0.00 90 1017.5
20260904131904 78 225 0.0 0.0 0.00 0.00 0.00 92 1017.7
20260904131359 77 225 0.0 0.0 0.00 0.00 0.00 94 1017.8
20260904130855 76 228 0.0 0.0 0.00 0.00 0.00 95 1017.8
20260904130354 76 223 0.0 0.0 0.00 0.00 0.00 96 1017.8
20260904125849 75 223 0.0 0.0 0.00 0.00 0.00 97 1017.8
20260904125346 75 223 0.0 0.0 0.00 0.00 0.00 98 1017.5
20260904124844 75 227 0.0 0.0 0.00 0.00 0.00 98 1017.9
20260904124342 74 226 0.0 0.0 0.00 0.00 0.00 99 1017.8
20260904123836 74 225 0.0 0.0 0.00 0.00 0.00 99 1017.9
20260904123331 74 225 0.0 0.0 0.00 0.00 0.00 99 1017.7
20260904122826 74 225 0.0 0.0 0.00 0.00 0.00 99 1017.5
20260904122321 74 222 0.0 0.0 0.00 0.00 0.00 99 1017.5
20260904121816 73 223 0.0 0.0 0.00 0.00 0.00 99 1017.3
20260904121312 73 222 0.0 0.0 0.00 0.00 0.00 99 1017.3
20260904120809 73 222 0.0 0.0 0.00 0.00 0.00 99 1017.5
20260904120303 73 225 0.0 0.0 0.00 0.00 0.00 99 1017.4
20260904115759 73 225 0.0 0.0 0.00 0.00 0.00 99 1017.5
20260904115254 73 224 0.0 0.0 0.00 0.00 0.00 99 1017.7
20260904114749 73 221 0.0 0.0 0.00 0.00 0.00 99 1017.7
20260904114248 73 223 0.0 0.0 0.00 0.00 0.00 99 1017.3
20260904113743 73 223 0.0 0.0 0.00 0.00 0.00 99 1017.2
20260904113242 73 221 0.0 0.0 0.00 0.00 0.00 99 1017.2
20260904112738 73 221 0.0 0.0 0.00 0.00 0.00 99 1017.3
20260904112233 73 221 0.0 0.0 0.00 0.00 0.00 99 1017.1
20260904111729 73 221 0.0 0.0 0.00 0.00 0.00 99 1017.1
20260904111224 73 221 0.0 0.0 0.00 0.00 0.00 99 1017.0
20260904110720 73 225 0.0 0.0 0.00 0.00 0.00 99 1017.0
20260904110219 73 225 0.0 0.0 0.00 0.00 0.00 99 1017.2
20260904105714 73 223 0.0 0.0 0.00 0.00 0.00 99 1017.0
20260904105209 73 223 0.0 0.0 0.00 0.00 0.00 99 1016.9
20260904104704 73 221 0.0 0.0 0.00 0.00 0.00 99 1016.8
20260904104200 73 221 0.0 0.0 0.00 0.00 0.00 99 1016.9
20260904103656 73 221 0.0 0.0 0.00 0.00 0.00 99 1016.5
20260904103151 73 221 0.0 0.0 0.00 0.00 0.00 99 1016.6
20260904102647 73 220 0.0 0.0 0.00 0.00 0.00 99 1016.8
20260904102142 73 224 0.0 0.0 0.00 0.00 0.00 99 1016.7
20260904101639 73 223 0.0 0.0 0.00 0.00 0.00 99 1016.5
20260904101134 73 223 0.0 0.0 0.00 0.00 0.00 99 1016.5
20260904100630 73 222 0.0 0.0 0.00 0.00 0.00 99 1016.6
20260904100125 73 223 0.0 0.0 0.00 0.00 0.00 99 1016.4
20260904095619 73 225 0.0 0.0 0.00 0.00 0.00 99 1016.5
20260904095114 73 224 0.0 0.0 0.00 0.00 0.00 99 1016.6
20260904094609 73 224 0.0 0.0 0.00 0.00 0.00 99 1016.6
20260904094104 73 224 0.0 0.0 0.00 0.00 0.00 99 1016.5
20260904093601 73 224 0.0 0.0 0.00 0.00 0.00 99 1016.3
20260904093101 73 223 0.0 0.0 0.00 0.00 0.00 99 1016.4
20260904092557 73 223 0.0 0.0 0.00 0.00 0.00 99 1016.2
20260904092053 73 223 0.0 0.0 0.00 0.00 0.00 99 1016.4
20260904091549 73 223 0.0 0.0 0.00 0.00 0.00 99 1016.5
20260904091048 73 221 0.0 0.0 0.00 0.00 0.00 99 1016.4
20260904090544 73 226 0.0 0.0 0.00 0.00 0.00 99 1016.4
20260904090039 73 222 0.0 0.0 0.00 0.00 0.00 99 1016.3
20260904085534 73 225 0.0 0.0 0.00 0.00 0.00 99 1016.2
20260904085034 73 224 0.0 0.0 0.00 0.00 0.00 99 1016.1
20260904084529 73 223 0.0 0.0 0.00 0.00 0.00 99 1016.4
20260904084026 74 223 0.0 0.0 0.00 0.00 0.00 99 1016.5
20260904083522 74 223 0.0 0.0 0.00 0.00 0.00 99 1016.3
20260904083017 74 223 0.0 0.0 0.00 0.00 0.00 99 1016.3
20260904082512 74 223 0.0 0.0 0.00 0.00 0.00 98 1016.3
20260904082007 74 222 0.0 0.0 0.00 0.00 0.00 98 1016.1
20260904081503 74 224 0.0 0.0 0.00 0.00 0.00 98 1016.3
20260904080958 74 224 0.0 0.0 0.00 0.00 0.00 98 1016.1
20260904080454 74 225 0.0 0.0 0.00 0.00 0.00 98 1016.0
20260904075949 74 221 0.0 0.0 0.00 0.00 0.00 98 1016.2
20260904075445 74 221 0.0 0.0 0.00 0.00 0.00 98 1016.0
20260904074944 74 220 0.0 0.0 0.00 0.00 0.00 98 1016.1
20260904074439 74 220 0.0 0.0 0.00 0.00 0.00 98 1016.0
20260904073934 74 220 0.0 0.0 0.00 0.00 0.00 98 1016.0
20260904073430 74 223 0.0 0.0 0.00 0.00 0.00 98 1016.1
20260904072925 74 223 0.0 0.0 0.00 0.00 0.00 98 1016.0
20260904072420 74 223 0.0 0.0 0.00 0.00 0.00 98 1016.1
20260904071916 74 223 0.0 0.0 0.00 0.00 0.00 97 1015.8
20260904071411 74 223 0.0 0.0 0.00 0.00 0.00 97 1015.9
20260904070906 74 223 0.0 0.0 0.00 0.00 0.00 97 1015.9
20260904070404 75 222 0.0 0.0 0.00 0.00 0.00 97 1015.8
20260904065905 75 223 0.0 0.0 0.00 0.00 0.00 97 1016.0
20260904065401 75 224 0.0 0.0 0.00 0.00 0.00 97 1016.0
20260904064900 75 224 0.0 0.0 0.00 0.00 0.00 97 1016.0
20260904064357 75 224 0.0 0.0 0.00 0.00 0.00 97 1015.9
20260904063852 75 224 0.0 0.0 0.00 0.00 0.00 97 1016.1
20260904063349 75 224 0.0 0.0 0.00 0.00 0.00 97 1016.1
20260904062843 75 224 0.0 0.0 0.00 0.00 0.00 97 1016.3
20260904062340 75 224 0.0 0.0 0.00 0.00 0.00 97 1016.1
20260904061835 75 224 0.0 0.0 0.00 0.00 0.00 97 1016.1
20260904061331 75 224 0.0 0.0 0.00 0.00 0.00 97 1016.3
20260904060827 75 224 0.0 0.0 0.00 0.00 0.00 97 1016.3
20260904060323 75 224 0.0 0.0 0.00 0.00 0.00 96 1016.4
20260904055818 75 224 0.0 0.0 0.00 0.00 0.00 96 1016.4
20260904055313 75 224 0.0 0.0 0.00 0.00 0.00 96 1016.5
20260904054803 75 224 0.0 0.0 0.00 0.00 0.00 96 1016.3
20260904054259 75 222 0.0 0.0 0.00 0.00 0.00 96 1016.3
20260904053754 75 222 0.0 0.0 0.00 0.00 0.00 96 1016.4
20260904053253 75 222 0.0 0.0 0.00 0.00 0.00 96 1016.5
20260904052744 75 221 0.0 0.0 0.00 0.00 0.00 96 1016.5
20260904052240 75 221 0.0 0.0 0.00 0.00 0.00 96 1016.6
20260904051736 76 221 0.0 0.0 0.00 0.00 0.00 96 1016.6
20260904051231 76 221 0.0 0.0 0.00 0.00 0.00 96 1016.5
20260904050726 76 221 0.0 0.0 0.00 0.00 0.00 96 1016.5
20260904050223 76 221 0.0 0.0 0.00 0.00 0.00 96 1016.5
20260904045723 76 221 0.0 0.0 0.00 0.00 0.00 95 1016.7
20260904045218 76 221 0.0 0.0 0.00 0.00 0.00 95 1016.5
20260904044713 76 221 0.0 0.0 0.00 0.00 0.00 95 1016.6
20260904044209 76 221 0.0 0.0 0.00 0.00 0.00 95 1016.4
20260904043705 76 221 0.0 0.0 0.00 0.00 0.00 95 1016.7
20260904043201 76 221 0.0 0.0 0.00 0.00 0.00 95 1016.6
20260904042657 76 221 0.0 0.0 0.00 0.00 0.00 95 1016.7
20260904042153 76 220 0.0 0.0 0.00 0.00 0.00 95 1016.7
20260904041647 76 221 0.0 0.0 0.00 0.00 0.00 95 1016.7
20260904041144 76 220 0.0 0.0 0.00 0.00 0.00 95 1016.7
20260904040639 76 220 0.0 0.0 0.00 0.00 0.00 95 1016.6
20260904040135 76 221 0.0 0.0 0.00 0.00 0.00 94 1016.6
20260904035630 76 221 0.0 0.0 0.00 0.00 0.00 94 1016.8
20260904035125 76 221 0.0 0.0 0.00 0.00 0.00 94 1017.0
20260904034624 77 222 0.0 0.0 0.00 0.00 0.00 94 1016.8
20260904034120 77 221 0.0 0.0 0.00 0.00 0.00 94 1016.6
20260904033615 77 222 0.0 0.0 0.00 0.00 0.00 94 1016.8
20260904033113 77 222 0.0 0.0 0.00 0.00 0.00 94 1016.8
20260904032608 77 222 0.0 0.0 0.00 0.00 0.00 94 1017.0
20260904032107 77 222 0.0 0.0 0.00 0.00 0.00 94 1017.0
20260904031606 77 222 0.0 0.0 0.00 0.00 0.00 94 1016.7
20260904031103 77 222 0.0 0.0 0.00 0.00 0.00 94 1016.9
20260904030558 77 222 0.0 0.0 0.00 0.00 0.00 94 1016.8
20260904030053 77 225 0.0 0.0 0.00 0.00 0.00 94 1016.7
20260904025549 77 222 0.0 0.0 0.00 0.00 0.00 94 1017.0
20260904025044 77 220 0.0 0.0 0.00 0.00 0.00 94 1016.9
20260904024539 77 220 0.0 0.0 0.00 0.00 0.00 94 1017.0
20260904024035 77 220 0.0 0.0 0.00 0.00 0.00 93 1016.8
20260904023531 77 220 0.0 0.0 0.00 0.00 0.00 93 1016.8
20260904023026 77 220 0.0 0.0 0.00 0.00 0.00 93 1016.8
20260904022521 77 220 0.0 0.0 0.00 0.00 0.00 93 1016.8
20260904022018 78 220 0.0 0.0 0.00 0.00 0.00 93 1016.7
20260904021513 78 219 0.0 0.0 0.00 0.00 0.00 93 1016.8
20260904021009 78 222 0.0 0.0 0.00 0.00 0.00 93 1016.5
20260904020503 78 222 0.0 0.0 0.00 0.00 0.00 93 1016.7
20260904020003 78 222 0.0 0.0 0.00 0.00 0.00 93 1016.4
20260904015458 78 222 0.0 0.0 0.00 0.00 0.00 93 1016.3
20260904014956 78 222 0.0 0.0 0.00 0.00 0.00 92 1016.5
20260904014451 78 222 0.0 0.0 0.00 0.00 0.00 92 1016.3
20260904013947 78 222 0.0 0.0 0.00 0.00 0.00 92 1016.3
20260904013443 78 222 0.0 0.0 0.00 0.00 0.00 92 1016.3
20260904012939 78 222 0.0 0.0 0.00 0.00 0.00 92 1016.2
20260904012438 79 222 0.0 0.0 0.00 0.00 0.00 92 1016.0
20260904011933 79 222 0.0 0.0 0.00 0.00 0.00 92 1015.9
20260904011427 79 222 0.0 0.0 0.00 0.00 0.00 92 1016.0
20260904010923 80 222 0.0 0.0 0.00 0.00 0.00 92 1015.9
20260904010420 80 222 0.0 0.0 0.00 0.00 0.00 91 1016.1
20260904005914 80 222 0.0 0.0 0.00 0.00 0.00 91 1016.0
20260904005410 80 222 0.0 0.0 0.00 0.00 0.00 91 1015.8
20260904004910 80 222 0.0 0.0 0.00 0.00 0.00 91 1015.5
20260904004406 80 222 0.0 0.0 0.00 0.00 0.00 90 1015.7
20260904003901 81 223 0.0 0.0 0.00 0.00 0.00 90 1015.7
20260904003356 81 223 0.0 0.0 0.00 0.00 0.00 90 1015.5
20260904002851 82 223 0.0 0.0 0.00 0.00 0.00 90 1015.7
20260904002348 82 223 0.0 0.0 0.00 0.00 0.00 90 1015.4
20260904001847 82 223 0.0 0.0 0.00 0.00 0.00 89 1015.4
20260904001343 82 223 0.0 0.0 0.00 0.00 0.00 89 1014.9
20260904000837 83 223 0.0 0.0 0.00 0.00 0.00 88 1015.4
20260904000336 83 223 0.0 0.0 0.00 0.00 0.00 88 1015.2
20260903235831 83 223 0.0 0.0 0.00 0.00 0.00 87 1015.1
20260903235327 83 224 0.0 0.0 0.00 0.00 0.00 86 1015.0
20260903234826 84 224 0.0 0.0 0.00 0.00 0.00 85 1014.9
20260903234323 84 224 0.0 0.0 0.00 0.00 0.00 85 1014.7
20260903233819 84 226 0.0 0.0 0.00 0.00 0.00 86 1015.0
20260903233315 84 221 0.0 0.0 0.00 0.00 0.00 86 1014.9
20260903232814 84 220 0.0 0.0 0.00 0.00 0.00 85 1014.9
20260903232310 84 220 0.0 0.0 0.00 0.00 0.00 85 1014.9
20260903231809 84 220 0.0 0.0 0.00 0.00 0.00 85 1014.8
20260903231304 84 223 0.0 0.0 0.00 0.00 0.00 85 1015.0
20260903230759 85 220 0.0 0.0 0.00 0.00 0.00 85 1015.0
20260903230254 85 221 0.0 0.0 0.00 0.00 0.00 84 1015.1
20260903225750 85 220 0.0 0.0 0.00 0.00 0.00 83 1014.9
20260903225246 85 220 0.0 0.0 0.00 0.00 0.00 82 1014.8
20260903224743 84 220 0.0 0.0 0.00 0.00 0.00 83 1014.9
20260903224238 84 221 0.0 0.0 0.00 0.00 0.00 82 1014.8
20260903223733 84 225 0.0 0.0 0.00 0.00 0.00 82 1015.0
20260903223232 85 225 0.0 1.0 0.00 0.00 0.00 82 1015.1
20260903222727 85 212 1.0 1.0 0.00 0.00 0.00 80 1015.0
20260903222226 85 210 1.0 2.0 0.00 0.00 0.00 79 1014.9
20260903221721 85 220 0.0 0.0 0.00 0.00 0.00 81 1014.8
20260903221220 85 220 0.0 0.0 0.00 0.00 0.00 82 1015.0
20260903220718 85 220 0.0 1.0 0.00 0.00 0.00 81 1014.8
20260903220213 85 194 1.0 2.0 0.00 0.00 0.00 81 1015.0
20260903215712 86 219 0.0 0.0 0.00 0.00 0.00 79 1014.9
20260903215208 86 220 0.0 0.0 0.00 0.00 0.00 77 1014.5
20260903214706 87 220 0.0 1.0 0.00 0.00 0.00 74 1014.9
20260903214202 87 219 0.0 0.0 0.00 0.00 0.00 73 1015.2
20260903213656 86 217 0.0 0.0 0.00 0.00 0.00 74 1015.1
20260903213152 86 214 0.0 1.0 0.00 0.00 0.00 72 1014.8
20260903212648 87 225 0.0 1.0 0.00 0.00 0.00 70 1015.0
20260903212144 90 227 0.0 1.0 0.00 0.00 0.00 67 1015.1
20260903211638 92 222 1.0 1.0 0.00 0.00 0.00 57 1015.1
20260903211135 93 229 1.0 1.0 0.00 0.00 0.00 56 1015.0
20260903210630 93 223 0.0 0.0 0.00 0.00 0.00 55 1015.0
20260903210126 93 221 0.0 0.0 0.00 0.00 0.00 54 1015.0
20260903205625 94 223 0.0 0.0 0.00 0.00 0.00 55 1014.8
20260903205125 95 220 1.0 1.0 0.00 0.00 0.00 51 1015.0
20260903204620 96 220 0.0 2.0 0.00 0.00 0.00 48 1015.0
20260903204116 97 212 0.0 1.0 0.00 0.00 0.00 48 1015.1
20260903203611 97 222 0.0 1.0 0.00 0.00 0.00 46 1015.1
20260903203106 98 192 2.0 3.0 0.00 0.00 0.00 45 1015.0
20260903202601 98 212 1.0 1.0 0.00 0.00 0.00 47 1015.1
20260903202057 98 188 1.0 5.0 0.00 0.00 0.00 46 1015.1
20260903201551 98 218 1.0 2.0 0.00 0.00 0.00 45 1015.1
20260903201050 98 216 1.0 1.0 0.00 0.00 0.00 45 1015.1
20260903200546 98 225 0.0 2.0 0.00 0.00 0.00 44 1015.2
20260903200040 98 218 0.0 2.0 0.00 0.00 0.00 45 1015.6
20260903195537 98 226 2.0 3.0 0.00 0.00 0.00 45 1015.4
20260903195032 98 224 1.0 2.0 0.00 0.00 0.00 45 1015.7
20260903194527 99 212 1.0 2.0 0.00 0.00 0.00 45 1015.6
20260903194022 99 213 1.0 3.0 0.00 0.00 0.00 44 1015.5
20260903193519 98 196 1.0 3.0 0.00 0.00 0.00 44 1015.7
20260903193014 98 214 2.0 2.0 0.00 0.00 0.00 43 1015.8
20260903192511 99 228 1.0 2.0 0.00 0.00 0.00 44 1015.7
20260903192010 99 221 1.0 3.0 0.00 0.00 0.00 43 1016.0
20260903191507 99 216 0.0 3.0 0.00 0.00 0.00 44 1015.9
20260903191001 99 231 1.0 3.0 0.00 0.00 0.00 44 1015.9
20260903190501 99 195 2.0 3.0 0.00 0.00 0.00 43 1016.0
20260903185954 98 168 0.0 1.0 0.00 0.00 0.00 45 1016.1
20260903185450 98 270 3.0 3.0 0.00 0.00 0.00 44 1016.2
20260903184944 98 195 2.0 3.0 0.00 0.00 0.00 44 1016.3
20260903184442 98 230 0.0 1.0 0.00 0.00 0.00 47 1016.4
20260903183936 98 233 1.0 2.0 0.00 0.00 0.00 47 1016.2
20260903183430 98 229 1.0 2.0 0.00 0.00 0.00 47 1016.3
20260903182930 97 219 0.0 1.0 0.00 0.00 0.00 46 1016.6
20260903182429 97 229 2.0 2.0 0.00 0.00 0.00 47 1016.7
20260903181925 97 186 5.0 7.0 0.00 0.00 0.00 47 1016.8
20260903181419 98 153 2.0 3.0 0.00 0.00 0.00 46 1016.6
20260903180918 98 215 0.0 2.0 0.00 0.00 0.00 46 1016.6
20260903180413 98 199 2.0 3.0 0.00 0.00 0.00 44 1016.8
20260903175912 98 193 2.0 3.0 0.00 0.00 0.00 46 1016.8
20260903175407 98 219 0.0 2.0 0.00 0.00 0.00 48 1016.9
20260903174901 97 182 2.0 5.0 0.00 0.00 0.00 49 1017.0
20260903174356 97 201 2.0 2.0 0.00 0.00 0.00 49 1017.1
20260903173850 98 205 0.0 1.0 0.00 0.00 0.00 51 1017.1
20260903173346 97 224 0.0 2.0 0.00 0.00 0.00 51 1017.1
20260903172842 97 228 0.0 1.0 0.00 0.00 0.00 53 1017.3
20260903172336 97 226 0.0 2.0 0.00 0.00 0.00 53 1017.1
20260903171832 97 208 1.0 2.0 0.00 0.00 0.00 55 1017.3
20260903171327 96 222 0.0 1.0 0.00 0.00 0.00 54 1017.7
20260903170826 95 216 1.0 3.0 0.00 0.00 0.00 56 1017.7
20260903170322 96 217 0.0 2.0 0.00 0.00 0.00 55 1017.7
20260903165820 95 224 0.0 0.0 0.00 0.00 0.00 57 1017.8
20260903165314 95 225 0.0 1.0 0.00 0.00 0.00 56 1017.9
20260903164814 95 218 1.0 2.0 0.00 0.00 0.00 56 1017.9
20260903164310 94 201 1.0 2.0 0.00 0.00 0.00 58 1018.1